User: anonymous   Login
Location: Unspecified
(62.3838°N, 0.0000°E)
Time: 05:55:08
(UTC+00:00)
Language:

Cosmos 1066 Rocket - Orbit

View from above orbital plane
View from above orbital plane
View from above satellite
View from above satellite

Ground track
Ground track

The orbit is defined by the following mean orbital elements,

1 11166U          26088.02150397 +.00000000 +00000-0 +32696-4 0 00009
2 11166  81.2356 279.4170 0066644 130.6519 230.0475 14.14262328    07
Epoch (UTC): 29 March 2026 00:30:57
Eccentricity: 0.0066644
inclination: 81.2356°
perigee height: 797 km
apogee height: 893 km
right ascension of ascending node: 279.4170°
argument of perigee: 130.6519°
revolutions per day: 14.14262328
mean anomaly at epoch: 230.0475°

The dashed part of the orbit path shows where the satellite is in the earth's shadow,  

DLR